GFSWCAN_2pvu_pres_048.txt.gz
Presure
252 294 271 287 285 276 294 310 305 335 308 287 434 370 364 353 331 323 316 313 328 293 134 309 303 314 331 351 313 261 334 331 247 241 245 242 237 244 246 236 198 235 259 259 237 227 225 212 164 227 228 231 232 237
308 278 279 289 268 268 297 319 305 332 302 348 431 373 374 351 337 323 313 300 316 310 150 307 323 309 304 306 303 303 299 304 252 248 250 245 242 232 251 257 228 275 249 247 180 215 218 225 220 225 209 232 229 248
277 268 274 270 282 290 299 308 327 325 297 605 432 386 367 339 337 321 336 308 307 309 296 284 283 281 279 280 285 282 285 289 288 292 294 301 194 170 267 234 339 263 251 201 232 234 181 227 179 226 223 228 227 242
209 274 278 286 295 319 290 313 338 320 292 628 416 386 359 322 340 314 313 310 297 282 275 273 273 273 270 263 258 261 259 256 260 252 241 230 184 237 222 309 264 227 203 217 215 204 222 167 228 231 223 229 236 222
283 278 282 297 290 322 294 294 335 315 289 608 410 373 352 335 311 316 314 288 280 275 271 271 262 253 245 237 243 251 265 289 334 381 345 301 183 187 287 184 228 216 222 172 215 216 232 222 228 232 237 241 243 232
284 289 283 304 293 283 298 297 328 303 484 613 408 383 343 325 326 328 285 281 274 269 264 252 243 178 243 247 251 286 345 295 274 279 240 286 182 275 234 215 229 210 221 173 230 233 226 229 222 232 234 237 240 242
284 283 289 306 297 281 290 340 320 297 666 617 409 377 337 319 322 299 287 277 267 262 247 236 241 195 246 245 309 334 243 220 276 213 215 272 260 221 268 231 234 232 188 231 223 233 228 216 235 222 226 233 228 191
288 281 288 319 287 282 290 320 313 289 684 442 395 364 344 324 326 290 279 270 263 253 233 240 212 237 236 264 246 277 246 269 214 229 219 243 233 262 244 230 239 239 234 232 234 237 218 271 228 216 233 214 207 203
281 284 297 301 293 283 285 327 303 281 500 396 377 351 330 330 299 281 277 266 256 248 215 249 237 233 242 232 222 246 256 238 240 246 215 210 200 194 207 211 227 224 225 235 217 226 240 252 249 247 230 228 213 233
288 289 308 281 292 294 285 291 298 275 422 388 371 342 330 315 292 278 267 261 252 245 234 235 236 227 235 237 225 253 211 211 244 208 244 236 233 240 234 238 218 253 224 236 239 244 226 238 241 239 240 244 249 254
284 288 303 274 283 283 282 319 295 271 411 371 338 335 341 293 278 272 269 264 254 244 223 229 246 218 225 229 220 233 226 209 206 217 235 196 220 211 240 249 243 204 229 225 227 226 229 220 219 220 224 227 227 227
286 299 300 274 273 274 283 310 294 271 410 377 341 334 336 280 284 274 273 263 254 242 236 226 215 242 230 223 217 237 224 233 253 248 229 246 241 228 249 232 194 221 211 208 213 216 201 200 197 191 192 207 195 194
291 287 306 265 284 276 270 306 293 270 257 363 357 334 334 293 271 275 266 268 253 246 237 224 225 211 206 232 225 216 218 213 215 256 260 258 250 211 218 219 215 226 214 202 213 221 202 192 204 207 209 208 209 207
278 306 258 268 270 277 269 299 295 277 262 283 331 343 342 321 281 274 275 261 265 246 238 224 227 221 214 204 235 229 224 218 217 212 204 223 222 217 224 210 211 215 222 214 207 201 204 210 210 207 196 202 204 200
295 269 261 267 266 273 269 287 296 285 263 256 331 351 296 325 315 263 283 266 260 256 243 236 223 219 220 209 203 228 233 215 228 218 219 214 211 209 217 208 203 216 207 204 203 203 206 204 201 201 202 204 204 204
300 293 259 259 265 270 266 275 299 263 271 258 254 286 318 298 297 307 266 271 268 258 255 246 239 230 211 213 211 206 217 201 226 230 228 222 219 214 212 212 211 211 209 207 203 205 207 207 208 213 221 227 229 228
304 267 272 265 267 266 264 281 303 289 276 262 255 249 262 340 324 325 318 299 263 269 261 253 248 242 234 227 217 209 210 205 117 204 192 231 232 225 224 223 220 216 220 222 224 225 226 228 229 231 231 230 231 236
271 278 261 268 270 257 266 281 293 290 277 267 253 253 249 253 308 345 329 320 292 274 267 262 259 253 245 238 232 227 221 217 213 208 206 201 226 224 230 233 231 231 229 228 227 226 227 228 231 233 232 234 232 213
275 263 262 258 271 264 265 283 277 307 285 268 271 253 250 247 249 258 325 345 329 303 287 259 245 261 254 251 249 239 231 229 219 217 212 212 211 207 201 193 199 210 212 210 210 210 208 207 208 210 209 205 204 204
265 253 264 255 262 253 269 296 275 278 296 280 270 276 253 249 246 242 249 259 351 359 338 322 290 266 260 258 263 258 252 242 236 228 220 216 204 206 207 201 200 200 199 199 200 202 202 202 206 210 208 206 204 204
256 273 248 262 265 262 275 291 277 273 292 302 285 277 275 263 249 245 244 242 251 256 270 360 353 329 321 302 274 250 257 259 238 247 237 233 229 227 204 210 208 210 211 209 206 204 206 207 191 190 195 199 199 200
275 254 262 268 282 261 278 284 283 277 278 274 300 301 277 273 282 259 249 245 242 239 244 252 257 267 303 364 314 326 313 285 296 265 252 250 244 238 231 231 229 210 208 210 211 209 206 205 209 209 205 203 202 202
254 270 271 273 275 275 274 285 281 289 278 273 270 276 282 297 269 277 274 258 248 246 241 237 239 242 247 261 268 305 312 343 358 339 304 276 262 259 251 245 240 236 235 228 218 211 210 206 205 210 210 211 208 211
268 285 288 277 278 265 281 284 279 278 280 280 261 294 298 295 290 289 274 276 270 257 254 251 246 244 245 246 248 249 260 264 273 282 299 343 348 321 271 268 258 249 244 240 238 237 236 232 230 228 228 231 232 230
299 297 281 277 300 300 283 281 270 279 280 282 288 301 289 287 288 284 286 273 268 271 274 270 263 258 249 248 252 253 252 254 260 268 275 274 285 324 321 295 266 273 266 258 252 254 244 243 242 241 243 237 235 234
292 275 278 304 295 297 278 277 281 272 271 276 282 300 308 280 283 285 285 280 275 277 279 280 278 273 257 257 256 263 270 275 278 277 280 280 280 285 322 310 310 292 277 270 262 259 255 257 258 256 254 247 245 246
280 272 301 295 284 287 273 279 268 261 262 279 293 304 282 288 271 288 271 272 274 276 275 270 265 260 263 326 364 471 484 516 538 572 459 307 301 300 299 317 304 297 292 272 267 261 259 255 250 249 250 249 249 250
281 280 303 290 286 276 280 284 286 288 276 290 290 297 293 280 280 271 275 273 274 271 274 272 306 444 400 369 351 345 439 444 503 527 532 477 313 304 299 305 312 293 287 292 282 268 261 259 254 249 247 247 248 249
281 283 291 295 290 276 274 280 283 283 285 284 300 294 283 268 277 274 270 264 268 273 305 368 396 376 356 330 404 460 429 430 464 500 458 487 379 320 296 300 303 298 283 286 288 287 281 270 262 255 252 254 260 273
280 278 289 297 290 283 274 278 284 290 307 303 285 278 278 282 269 263 259 273 279 302 376 375 388 361 321 449 436 445 432 395 448 497 485 433 374 335 310 293 292 296 287 277 275 275 278 277 278 278 275 271 271 271
285 289 297 290 285 278 280 288 285 299 300 293 279 278 275 262 255 262 277 280 295 400 377 382 361 317 440 421 419 422 433 439 439 482 438 402 371 319 315 296 288 295 288 279 270 266 266 267 266 267 275 272 266 270
285 278 291 282 286 285 289 289 302 306 295 283 276 274 257 252 259 276 278 286 372 387 344 368 325 436 414 397 406 398 433 377 467 452 392 360 372 350 334 290 304 290 285 279 274 272 268 265 265 265 266 271 270 267
287 292 277 281 290 304 278 315 303 293 278 270 274 258 248 257 265 276 282 293 391 351 445 348 408 414 394 379 384 404 396 439 431 388 381 365 346 330 324 311 306 301 284 278 277 277 274 272 268 269 263 264 264 263

GFSWCAN_2pvu_pres_054.txt.gz
Presure
319 309 282 313 327 306 305 309 299 298 307 282 303 305 298 298 385 364 330 347 320 322 319 324 302 231 273 258 253 250 252 239 237 237 239 256 261 231 227 217 214 217 217 207 215 214 213 230 206 232 226 237 230 219
297 324 309 315 296 295 270 312 295 298 301 285 310 297 321 292 371 341 320 321 302 304 314 326 321 305 283 275 263 260 253 252 240 237 232 238 246 255 253 229 219 207 211 214 210 210 215 231 243 234 215 222 221 223
283 314 309 337 294 296 274 311 293 301 279 296 318 293 307 328 385 347 314 318 329 317 304 291 310 314 319 309 281 263 258 258 252 251 232 230 229 239 246 246 241 218 222 219 218 215 232 213 234 207 170 225 231 228
307 325 329 305 295 306 316 295 294 303 280 298 320 293 299 382 364 337 322 318 315 309 301 292 311 313 314 313 318 296 273 263 255 252 250 235 230 226 230 233 208 220 220 163 219 230 214 199 226 161 224 226 233 227
321 322 308 274 180 294 299 294 297 305 285 317 299 318 296 371 344 332 319 312 280 284 305 309 305 300 303 306 312 316 270 321 307 267 249 243 242 246 228 230 229 218 223 231 219 240 246 231 177 224 228 234 231 232
319 317 304 314 312 291 285 293 298 308 299 318 295 307 410 368 345 331 295 312 295 312 308 296 301 288 285 285 285 283 285 287 293 298 302 286 259 250 245 177 172 232 222 238 230 255 176 213 224 225 229 234 231 233
318 311 152 294 305 302 282 293 295 297 310 331 309 456 395 352 336 326 325 310 315 303 291 278 271 269 269 269 269 268 269 270 278 290 297 302 310 296 239 177 221 231 247 230 258 230 231 220 223 225 225 223 227 242
316 310 305 296 218 284 290 293 289 306 325 305 311 413 370 346 325 318 316 311 298 280 274 262 258 256 251 247 217 280 307 303 306 286 259 270 290 304 278 182 220 264 228 258 212 221 215 231 231 235 235 230 243 245
311 310 307 311 281 294 289 289 284 292 312 294 381 384 351 332 327 317 311 299 281 274 259 255 244 237 243 301 274 280 276 274 237 277 314 347 244 310 218 180 257 225 220 254 233 214 220 226 228 225 222 257 237 225
323 304 299 286 290 290 292 280 288 285 297 285 351 371 352 332 326 308 306 288 277 257 252 242 244 233 295 270 273 268 267 270 277 277 309 307 247 211 273 232 232 179 223 232 188 212 232 233 214 240 225 221 211 230
312 253 299 282 292 284 286 280 268 303 288 293 341 350 343 328 305 317 293 283 270 252 245 233 241 276 278 257 255 249 248 257 270 279 220 252 247 239 239 243 247 246 220 221 225 239 236 229 239 227 233 217 222 212
310 301 290 285 287 283 284 269 286 306 282 281 285 342 337 326 312 310 290 280 261 248 243 232 241 238 255 266 269 254 259 258 252 212 269 248 254 231 247 241 214 239 236 232 228 233 233 224 213 212 242 236 241 238
303 295 289 284 280 281 276 269 281 278 277 298 279 340 334 302 311 307 285 281 263 243 241 232 235 234 256 239 225 233 242 243 244 236 229 250 236 245 240 198 242 236 237 236 233 237 225 225 215 245 220 226 227 224
306 297 288 280 278 281 272 280 283 280 273 296 283 272 354 312 320 309 294 284 269 246 238 233 231 232 234 253 236 228 237 242 241 242 225 255 217 241 244 229 234 232 237 236 231 221 236 216 233 240 227 228 224 203
301 285 291 283 263 265 253 270 287 254 265 295 283 271 303 311 323 317 302 283 279 257 236 233 232 232 227 235 227 237 218 229 222 224 219 218 211 218 230 225 245 211 220 235 239 214 197 228 233 233 224 214 213 211
296 285 136 282 261 274 243 258 273 266 262 284 285 274 268 308 314 326 305 297 285 275 253 217 231 230 225 222 231 232 226 227 228 219 212 228 229 222 222 230 218 224 236 212 203 202 220 221 229 215 227 208 207 208
293 279 303 269 289 258 257 277 271 292 257 269 292 279 268 263 255 335 325 312 273 284 268 258 234 214 229 227 226 219 224 234 226 222 229 236 212 221 216 224 231 227 249 225 253 240 234 220 231 214 224 206 212 222
290 278 303 286 266 289 246 274 257 272 277 268 303 289 277 266 261 256 336 333 328 302 275 265 259 244 229 230 223 224 223 221 219 235 229 225 217 223 214 209 213 215 193 179 202 213 233 216 226 225 215 210 207 210
296 280 294 269 266 276 269 262 264 265 269 262 262 302 288 276 268 261 256 248 320 351 328 300 285 268 247 244 238 231 233 228 222 223 215 230 232 230 224 222 224 223 210 208 213 218 217 216 217 214 213 213 213 212
290 283 276 250 285 278 279 263 259 272 263 275 267 282 289 290 278 276 264 258 253 246 267 307 362 346 291 284 271 254 245 234 231 234 224 223 222 213 215 230 231 204 221 223 223 217 204 209 217 215 211 212 213 214
154 227 300 257 270 239 265 264 259 260 267 257 274 264 288 280 292 285 277 275 263 263 254 244 249 267 299 338 363 274 281 276 252 246 229 232 235 224 223 223 211 207 214 215 227 203 196 222 223 223 225 226 227 226
183 299 297 286 268 271 243 253 282 251 267 256 265 269 263 277 283 272 288 286 275 278 275 265 259 251 242 244 267 296 331 370 361 338 304 258 245 236 231 234 220 221 223 223 219 207 208 212 213 215 214 212 208 205
298 281 286 294 279 279 288 270 274 261 261 265 301 266 282 263 273 280 283 282 279 287 289 280 278 277 269 261 254 246 241 253 279 301 350 357 342 322 278 265 255 240 237 235 233 225 217 219 221 224 223 221 218 216
295 283 291 295 279 285 270 288 271 268 259 264 274 263 265 275 265 271 280 283 291 289 289 278 299 307 282 277 282 275 267 259 254 251 247 249 271 292 313 361 369 362 286 286 284 254 249 245 239 237 234 230 227 227
301 285 302 290 281 283 280 281 277 287 265 265 308 291 267 283 277 272 274 281 271 281 292 294 264 264 313 288 290 284 278 281 278 274 272 266 259 258 254 239 251 264 287 340 357 335 332 310 298 285 277 265 267 272
305 310 302 285 285 289 281 287 283 277 271 267 300 272 277 277 273 263 279 285 282 279 283 287 283 301 317 318 301 298 263 296 289 283 282 283 284 283 280 275 270 265 260 250 246 263 265 269 287 320 350 322 316 311
286 303 307 289 288 283 308 287 289 289 272 275 272 275 278 271 281 273 295 291 285 276 281 284 270 296 305 308 308 301 286 284 299 303 297 291 288 288 285 283 283 287 290 289 284 272 249 244 246 246 245 247 251 256
290 285 289 291 287 287 289 292 283 273 335 277 294 286 291 272 280 298 301 295 280 271 283 296 310 293 313 307 259 299 294 291 279 288 293 290 285 281 275 276 270 274 275 276 283 288 288 280 240 238 239 240 244 248
288 285 290 288 288 287 288 330 275 275 296 280 291 296 278 268 303 301 299 292 271 275 283 288 302 324 312 299 281 270 283 293 264 264 274 293 298 328 334 353 499 493 339 320 298 277 268 264 260 255 251 249 249 250
286 295 290 288 298 322 321 289 277 273 305 292 286 268 266 294 295 289 293 270 277 276 288 303 321 315 296 284 280 290 290 268 280 295 396 509 501 498 494 491 489 372 376 438 424 394 400 351 278 269 267 264 261 256
293 296 289 289 320 321 313 295 297 299 295 288 281 277 260 283 290 293 280 283 280 292 314 325 310 288 281 282 294 273 280 300 401 523 512 463 448 447 445 449 450 462 463 425 329 338 351 361 429 381 276 268 262 259
293 293 282 319 322 311 290 288 288 299 299 279 278 291 300 283 287 294 288 281 299 323 312 301 285 272 286 287 278 288 306 489 555 549 522 425 406 413 426 434 433 463 449 442 443 462 379 313 376 353 335 317 289 275
284 291 317 314 316 282 283 296 296 291 282 290 300 300 285 290 295 287 284 331 317 303 299 282 271 289 273 279 288 346 542 531 528 415 396 441 432 436 446 450 426 397 494 437 407 457 409 370 350 335 316 305 298 297

GFSWCAN_2pvu_pres_060.txt.gz
Presure
288 284 301 282 328 126 326 322 323 324 315 317 332 309 313 299 297 308 299 295 375 361 343 323 282 285 265 258 251 250 244 256 260 255 249 244 241 236 226 223 222 220 216 212 208 216 215 213 228 225 223 243 238 228
297 293 328 345 264 127 341 324 328 335 329 321 316 311 321 303 296 309 321 290 368 355 346 330 275 278 268 264 252 252 248 246 260 260 257 255 244 236 227 222 216 216 216 215 213 215 215 218 222 220 222 224 234 235
290 352 353 345 123 343 340 330 333 336 325 289 325 314 319 305 296 305 302 294 350 361 357 357 311 275 270 271 264 246 254 247 244 260 261 255 257 238 227 223 223 217 214 212 210 214 216 219 220 221 219 241 236 230
352 205 355 250 320 314 340 329 339 333 325 319 326 309 321 303 307 313 292 365 344 333 327 327 308 285 272 277 267 264 250 256 248 240 234 260 257 251 235 226 225 222 216 214 209 218 216 217 215 211 222 239 236 203
355 356 351 352 321 342 337 334 334 335 327 319 327 335 319 300 319 301 384 355 337 336 330 320 325 313 302 280 276 268 260 251 256 250 240 237 247 258 247 238 233 229 226 220 218 219 173 214 221 224 222 246 178 200
355 341 353 351 345 334 332 336 332 332 328 320 316 332 316 298 312 410 368 347 334 315 307 319 321 320 315 324 289 274 271 256 258 252 251 250 236 235 251 263 256 233 224 225 223 215 211 224 224 225 228 242 234 221
348 346 349 342 338 334 334 217 325 331 322 313 339 319 306 324 386 381 351 336 322 316 311 306 303 311 319 320 318 319 325 309 274 264 255 252 246 240 242 243 245 252 252 251 247 241 222 220 218 171 224 238 232 223
344 343 338 338 330 330 325 324 322 329 320 325 321 314 316 311 396 354 334 329 324 317 307 296 307 310 301 296 296 296 294 300 307 315 317 271 252 251 241 229 230 225 235 210 240 219 221 225 230 224 255 236 228 225
337 334 336 330 330 322 326 318 326 210 309 293 326 340 316 400 362 335 327 320 325 297 300 313 294 289 286 284 280 281 281 293 290 290 299 307 314 301 260 248 238 235 202 227 226 224 230 231 220 245 255 222 222 225
329 337 329 324 319 323 316 313 309 323 298 301 320 319 301 362 346 330 315 324 302 302 308 284 282 279 274 267 266 297 281 274 271 279 290 299 306 313 311 267 247 235 204 225 223 222 230 221 234 258 228 221 231 240
332 326 317 317 320 309 308 303 280 313 296 298 301 301 341 352 334 321 313 315 308 308 281 275 271 263 259 289 287 276 282 256 281 286 303 321 334 359 309 308 301 246 185 196 234 233 224 235 260 237 221 223 227 235
323 316 310 319 312 316 306 299 191 299 287 278 298 295 289 343 333 322 324 309 310 276 274 266 262 257 287 283 275 274 273 278 272 278 286 301 328 300 296 303 322 295 205 181 233 229 252 261 240 237 216 219 235 233
314 308 317 310 304 300 298 116 299 295 297 298 286 287 287 341 332 328 306 313 287 276 264 263 254 253 291 276 268 265 268 269 267 273 270 264 265 285 292 292 271 276 190 244 233 236 245 259 235 209 223 221 236 228
310 308 307 306 303 294 295 298 294 297 280 284 291 285 328 351 314 318 309 314 281 270 264 263 255 248 286 273 263 265 255 269 263 262 262 254 272 280 280 209 209 274 258 256 250 243 240 254 231 223 222 235 236 228
303 306 297 303 296 294 299 285 290 289 273 280 288 279 285 273 325 323 305 316 289 269 262 262 253 250 290 266 244 254 261 264 259 259 257 254 271 244 275 271 260 250 232 235 242 245 223 202 212 218 226 230 224 236
300 295 294 304 298 291 284 283 292 282 273 278 287 287 272 275 289 314 300 304 307 267 266 256 254 249 243 257 243 238 265 240 238 261 256 255 253 266 266 244 238 231 236 241 243 244 253 229 226 218 218 227 236 230
296 291 297 294 290 300 284 285 289 280 140 173 280 284 271 273 271 326 317 308 304 297 255 262 253 249 243 241 238 239 258 234 229 228 265 257 254 264 255 247 246 242 233 227 233 236 238 239 247 231 242 218 188 210
290 293 295 295 285 239 298 285 278 258 283 281 281 283 298 268 271 270 265 318 318 302 302 259 262 251 247 248 239 240 252 259 234 232 228 225 241 262 257 226 219 215 215 237 236 214 222 238 215 232 234 239 212 212
283 296 292 221 198 231 285 286 276 277 274 278 280 278 287 274 261 277 266 261 256 314 316 312 277 261 258 253 253 244 240 237 258 233 234 230 226 227 234 227 243 256 238 224 224 227 229 223 225 230 225 229 223 224
287 293 291 247 301 279 292 277 295 277 258 272 269 277 271 271 273 286 276 271 263 255 313 339 329 316 276 270 261 255 250 247 242 240 236 233 234 233 229 225 226 225 224 221 227 227 236 231 229 224 222 219 219 220
293 288 291 284 298 277 282 285 288 271 271 272 275 277 267 266 271 258 288 283 275 268 260 253 251 290 321 343 338 334 266 259 253 247 242 243 239 240 237 232 234 237 227 225 224 227 226 224 222 222 226 229 221 217
285 299 289 281 295 276 289 283 271 287 270 263 258 262 276 266 266 266 263 257 280 289 277 269 264 257 256 252 262 278 294 300 307 300 270 260 255 251 251 247 244 242 241 239 238 236 236 235 230 228 225 226 226 224
283 299 288 297 290 282 287 285 243 140 284 274 243 259 261 268 261 262 264 267 263 279 281 283 285 283 279 269 261 256 257 255 252 249 258 264 275 290 297 300 282 277 261 259 253 249 248 247 244 238 237 233 231 228
205 301 295 282 299 297 297 276 286 252 290 255 273 264 269 254 255 255 261 261 259 259 265 276 278 281 286 289 288 289 289 294 293 294 290 285 281 268 258 251 246 243 247 266 285 310 330 354 271 256 250 249 248 241
313 291 302 288 285 290 300 295 280 278 279 288 273 256 264 267 261 267 252 271 268 260 261 260 266 277 277 277 274 281 294 287 292 306 296 294 297 293 290 291 302 313 327 295 266 257 250 248 250 277 287 294 301 345
135 260 309 294 285 290 281 292 290 286 280 275 291 284 280 254 257 258 260 257 260 269 266 263 266 260 259 281 280 279 278 268 289 289 303 306 300 290 295 286 290 302 313 316 327 325 312 298 290 277 266 260 253 248
323 320 302 296 290 292 289 328 289 290 286 269 279 286 277 279 261 252 276 256 269 262 267 271 274 266 308 266 279 250 277 274 267 280 292 320 292 292 290 290 286 281 320 325 309 314 319 318 312 309 306 301 293 283
326 310 303 292 301 289 281 336 320 288 292 273 273 279 281 271 264 265 266 266 284 277 269 272 296 271 271 263 268 294 306 280 267 295 305 316 317 317 314 313 328 342 339 336 336 338 333 324 317 313 309 300 294 292
311 313 305 282 298 293 280 285 286 309 294 285 279 281 281 278 280 282 283 274 269 271 278 275 273 273 274 259 301 304 276 281 288 300 314 316 291 316 312 341 336 329 310 297 295 298 301 301 298 296 295 295 295 295
315 314 169 174 176 230 288 291 288 321 301 294 287 283 281 285 287 288 289 289 289 287 294 302 275 327 269 292 293 283 275 288 296 312 305 308 295 339 330 319 307 301 294 292 290 290 289 290 291 289 288 285 280 277
314 311 311 271 303 302 292 292 327 320 312 304 294 290 289 293 275 281 282 288 280 301 320 280 271 303 299 301 292 294 293 321 300 319 343 334 325 309 311 299 291 288 295 478 505 506 467 464 599 475 479 624 514 515
317 320 310 303 306 303 297 290 293 323 312 283 276 278 280 283 288 288 278 280 337 287 274 286 305 302 298 295 291 312 302 304 340 329 318 311 313 297 283 287 296 468 451 443 436 444 469 451 423 417 445 474 491 493
322 315 310 310 305 295 290 291 287 281 285 281 281 283 283 280 284 282 278 278 302 272 298 301 301 295 282 309 320 298 316 331 298 297 308 294 285 296 312 472 458 457 451 502 532 420 455 443 436 432 435 466 471 463

GFSWCAN_2pvu_pres_066.txt.gz
Presure
181 241 302 131 331 379 375 377 365 361 102 328 108 342 331 328 335 312 303 312 310 314 305 386 309 301 290 272 268 263 250 278 267 257 255 250 243 243 237 234 237 241 243 243 245 243 230 225 221 261 280 271 239 229
157 325 125 322 279 377 377 374 363 362 97 360 353 342 333 339 326 329 308 311 319 299 294 399 338 302 297 262 262 252 268 270 272 255 250 247 242 245 237 240 244 240 236 225 262 275 284 277 275 244 224 215 212 211
310 257 288 175 245 378 380 321 339 359 361 357 353 342 334 322 320 317 309 305 315 297 310 336 371 316 295 280 254 260 251 247 273 268 256 253 247 244 241 241 239 230 248 265 271 275 249 233 221 211 220 218 216 225
155 292 323 303 304 375 374 360 287 354 365 351 352 341 329 325 323 311 310 302 313 289 305 289 363 351 305 285 273 254 256 262 239 266 261 261 254 250 239 240 241 235 256 263 255 226 221 217 217 218 217 214 220 222
312 162 257 293 360 371 347 355 355 354 357 354 344 341 337 325 320 315 304 307 318 297 307 293 382 341 334 304 278 262 255 249 269 253 267 257 254 250 243 241 238 245 255 228 220 218 218 217 216 211 213 219 216 213
361 255 289 347 368 362 356 355 347 351 349 347 344 342 329 324 312 316 310 320 303 304 296 288 367 340 324 340 298 276 263 252 246 244 241 273 259 253 249 246 239 236 231 222 217 217 215 213 211 210 213 216 213 217
298 277 228 374 365 356 351 352 97 345 342 340 344 333 325 325 316 308 317 316 299 302 293 361 350 346 340 323 327 286 268 263 250 248 244 241 242 261 249 252 236 239 233 224 221 217 215 214 213 203 213 214 219 216
309 375 353 371 363 356 348 341 345 337 334 342 335 328 323 317 336 333 305 305 313 300 337 338 325 327 320 325 330 327 283 265 265 254 252 251 237 239 266 268 253 237 235 227 222 218 217 216 215 214 216 187 217 214
266 417 412 389 367 348 337 339 334 337 337 324 328 321 323 325 320 317 324 305 295 357 340 325 318 314 319 319 321 320 319 317 254 261 266 263 249 239 243 242 263 257 243 233 223 223 220 219 218 218 214 216 218 231
362 379 398 385 369 347 329 329 332 326 316 325 195 311 322 169 311 313 419 375 353 326 323 323 318 318 307 307 309 310 315 320 327 331 280 274 271 246 245 246 244 232 266 251 239 231 228 227 227 222 222 223 228 239
419 399 392 373 361 337 330 310 325 321 319 314 307 322 308 303 362 373 359 345 329 325 310 314 302 304 300 295 297 295 291 292 293 295 297 299 306 312 322 272 255 247 237 251 263 248 242 241 242 247 246 237 237 222
391 382 380 368 367 330 320 245 320 314 314 307 292 312 291 349 369 353 341 327 317 305 308 296 304 295 288 287 279 280 288 284 279 278 278 279 287 297 305 312 321 286 251 245 234 244 246 254 250 243 237 240 225 226
402 383 379 375 357 329 312 311 316 317 307 305 311 297 292 309 345 335 331 311 316 315 291 310 291 286 283 274 291 282 273 269 266 268 278 289 296 306 321 336 345 368 319 254 247 236 237 237 225 179 228 224 228 206
398 386 374 364 348 319 308 307 315 311 301 297 292 288 287 309 330 316 319 315 317 296 308 294 286 282 280 274 298 270 267 263 265 264 275 273 279 282 298 339 364 327 308 313 262 251 235 229 233 200 217 216 224 237
392 383 370 354 344 315 306 300 305 307 297 292 291 283 285 280 318 319 317 309 315 287 301 289 279 278 273 260 289 271 260 257 262 270 269 266 269 270 273 277 278 286 302 319 326 275 248 240 233 232 188 232 223 230
382 371 357 212 338 312 302 300 296 304 294 284 283 283 287 281 308 297 316 310 309 306 300 284 275 272 264 256 288 268 262 256 266 259 264 268 268 272 271 271 276 282 288 292 301 306 260 247 243 225 237 217 215 228
371 356 328 340 334 309 300 301 296 300 290 283 291 285 280 280 284 291 288 319 313 306 301 279 273 267 266 254 246 280 264 257 257 243 255 265 257 259 265 261 266 274 273 275 285 286 276 252 243 239 236 236 234 229
363 347 342 337 328 306 295 294 300 296 288 283 298 287 279 272 271 285 277 297 319 298 311 282 268 269 264 263 252 244 273 261 251 248 251 245 252 254 269 255 261 262 261 273 280 270 268 263 258 250 243 246 248 232
352 349 336 334 326 306 296 288 295 290 285 288 278 276 279 269 275 290 265 277 314 317 303 302 273 262 266 268 256 254 253 279 258 243 244 244 248 246 239 254 253 247 267 256 263 259 257 257 258 256 253 249 257 253
356 345 335 331 330 310 295 286 300 288 289 282 281 279 170 271 267 271 283 279 270 341 310 301 298 278 272 267 263 257 249 248 255 276 252 240 247 229 236 239 243 239 253 261 248 251 259 252 251 250 247 247 248 245
346 337 334 333 327 129 295 290 293 285 288 283 280 285 271 279 259 270 286 282 271 327 313 305 305 310 304 281 272 268 268 263 260 254 243 238 238 237 240 242 235 232 233 237 236 233 255 256 227 224 222 222 219 217
345 338 333 334 326 243 291 289 292 282 293 252 231 280 270 280 267 269 287 278 274 267 266 264 258 309 316 315 309 295 285 273 272 263 261 259 251 244 241 239 238 232 233 234 237 237 231 231 231 233 235 236 232 230
342 335 333 333 327 307 284 290 290 282 286 279 285 278 272 269 280 273 273 280 257 270 264 266 269 269 263 259 254 252 284 303 319 322 325 301 286 279 267 259 252 246 244 239 239 237 236 236 233 234 236 237 238 238
336 331 335 330 327 308 296 287 287 283 288 281 277 285 275 269 270 265 275 283 139 144 276 270 260 277 275 274 272 270 268 266 265 262 258 256 256 263 266 280 291 295 298 302 301 295 294 292 274 261 256 256 257 256
335 378 337 336 325 311 297 291 288 283 285 283 275 276 281 268 271 270 263 271 265 261 266 262 263 261 261 260 259 263 280 280 281 281 282 284 283 285 283 283 278 275 271 273 274 272 270 269 269 271 270 267 265 262
367 345 340 335 328 311 300 293 288 281 291 286 278 270 278 280 270 263 271 272 257 254 265 269 266 264 262 261 260 259 260 257 256 256 259 259 263 272 263 260 264 261 306 274 273 286 285 283 282 286 289 312 312 308
358 359 335 335 325 318 300 296 288 287 296 284 281 275 277 273 269 267 272 277 268 270 277 263 259 249 249 251 249 255 262 271 274 279 278 283 265 284 280 260 284 282 281 286 283 305 311 312 299 291 264 266 306 327
361 346 351 341 255 133 313 297 287 249 294 287 286 284 270 279 280 272 272 275 273 274 265 264 266 270 273 267 265 268 262 265 268 268 272 275 282 278 278 294 280 288 302 282 288 328 320 317 277 284 294 327 328 330
387 398 342 345 342 335 319 298 290 288 298 289 285 280 276 312 295 281 278 280 270 280 279 267 268 263 261 266 272 265 261 252 260 269 269 276 301 303 306 310 286 279 290 330 318 319 315 301 318 326 334 351 355 355
424 423 418 354 347 339 326 300 293 289 294 291 284 283 279 276 276 299 270 265 274 276 274 275 280 279 279 284 287 291 284 287 296 286 296 295 294 305 326 289 304 326 330 330 330 338 349 350 346 344 345 330 328 326
465 497 505 354 349 338 329 311 297 283 296 293 287 283 281 281 282 290 297 295 293 285 286 288 282 281 275 279 284 273 277 277 289 295 296 292 290 298 321 317 320 328 337 341 354 347 347 348 339 330 325 321 318 316
465 484 521 356 352 348 332 310 296 292 288 290 295 289 288 282 279 277 279 299 296 292 290 292 286 284 286 277 266 276 284 289 300 289 281 294 319 316 312 325 333 328 354 346 344 332 320 314 312 313 321 464 479 490
497 477 355 349 354 348 336 293 305 317 302 294 295 202 216 287 284 277 273 276 306 303 309 304 302 303 296 278 285 289 292 287 283 294 329 311 315 315 324 331 358 347 340 317 311 309 328 443 454 499 519 519 511 467